Location: Siikaj�rvi
(62.3833°N, 25.8500°E)
Time: 04:17:16
(UTC+00:00)

Daily predictions for brighter satellites

Satellite Brightness Start Highest point End
(mag) Time Altitude Azimuth Time Altitude Azimuth Time Altitude Azimuth
COSMOS 2406 4.4 00:00:47 10° NW 00:06:21 49° NNE 00:11:52 10° ESE
Cosmos 2082 3.8 00:02:44 15° SSW 00:07:28 71° SE 00:13:05 10° NE
SL-16 R/B 3.8 00:07:02 10° WNW 00:10:48 18° W 00:13:48 12° SW
Cosmos 1048 Rocket 3.9 00:06:47 10° NW 00:11:56 75° WSW 00:17:06 10° SSE
Okean 1 Rocket 3.5 00:09:30 15° SW 00:13:00 54° WNW 00:17:21 10° N
SJ 16-02 1.4 00:09:53 15° SSW 00:13:30 87° ESE 00:17:57 10° NNE
NOSS 5 (C) 4.3 00:11:16 10° W 00:14:20 74° N 00:17:21 10° E
SL-14 R/B 4.2 00:11:00 10° NNW 00:14:31 32° W 00:17:08 15° SSW
Cosmos 2263 Rocket 3.2 00:15:07 10° S 00:20:08 36° ESE 00:25:11 10° NE
SL-19 R/B 4.4 00:15:40 10° NNE 00:21:40 85° WNW 00:26:53 12° SSW
Cosmos 1809 Rocket 4.5 00:15:45 10° NNW 00:21:51 75° W 00:27:58 10° S
ADEOS II 3.0 00:22:16 10° NNE 00:27:19 44° E 00:32:20 10° S
Okean 1-7 Rocket 4.3 00:23:26 10° NNW 00:27:33 38° W 00:31:14 12° SSW
NOSS 3-2 (A) 3.9 00:22:10 10° WNW 00:29:00 82° SSW 00:36:59 10° ESE
Cosmos 2084 Rocket 3.5 00:25:34 10° WNW 00:29:56 82° SSW 00:34:25 10° ESE
Cosmos 1626 Rocket 3.6 00:27:06 10° NNW 00:31:22 60° W 00:35:37 10° S
CZ-4B R/B 4.0 00:26:48 10° NNE 00:31:28 50° ESE 00:36:06 10° S
Cosmos 1937 Rocket 3.8 00:27:08 12° SSW 00:32:03 64° ESE 00:37:19 10° NE
Cosmos 2266 Rocket 4.3 00:26:04 10° NNW 00:32:13 52° W 00:38:14 10° SSW
CZ-4C R/B 4.1 00:29:47 14° SSW 00:32:28 32° W 00:35:54 10° NNW
Cosmos 1269 Rocket 4.2 00:28:14 10° NW 00:33:36 81° NE 00:38:55 10° SE
COBE Rocket 3.9 00:29:28 10° S 00:34:03 58° W 00:38:43 10° NNW
Cosmos 990 Rocket 4.0 00:29:47 13° SSW 00:34:31 82° ESE 00:39:43 10° NE
SL-08 R/B 3.5 00:29:44 10° SSE 00:34:43 87° ENE 00:39:40 10° NNW
Cosmos 2297 Rocket 2.5 00:29:14 10° WSW 00:34:52 65° NW 00:40:32 10° NE
OPS 6432 4.5 00:32:06 10° WNW 00:34:53 40° SSW 00:37:58 10° SE
Meteor 1-28 Rocket 3.4 00:33:50 10° SSE 00:37:39 80° ENE 00:41:30 10° NNW
NOSS 3-2 (C) 3.9 00:32:14 10° WNW 00:39:02 87° SSW 00:46:59 10° ESE
Cosmos 1833 Rocket 3.7 00:34:01 10° NW 00:39:35 53° NNE 00:45:07 10° ESE
Cosmos 1455 Rocket 3.1 00:35:31 12° SSW 00:39:42 78° WNW 00:44:13 10° NNE
Meteor 2-21 4.5 00:34:29 10° NNW 00:40:30 66° W 00:46:31 10° S
Cosmos 1745 Rocket 4.5 00:34:55 10° NNW 00:41:13 66° ENE 00:47:26 10° SSE
ATLAS CENTAUR R/B 3.6 00:39:13 10° SSE 00:41:26 14° ESE 00:43:34 10° E
Meteor 1-21 Rocket 4.3 00:36:48 10° NNW 00:42:17 61° W 00:47:44 10° S
USA 229 DEB 4.1 00:36:45 11° SSW 00:42:53 52° SE 00:49:41 10° ENE
USA 229 4.1 00:36:53 11° SSW 00:42:59 51° SE 00:49:46 10° ENE
Cosmos 1726 2.5 00:40:09 10° S 00:43:46 60° E 00:47:23 10° NNE
Meteor 1-29 4.1 00:42:49 10° N 00:45:59 33° WNW 00:49:04 10° SW
Cosmos 2219 3.8 00:42:42 10° WSW 00:48:14 55° NNW 00:53:48 10° NE
ARIANE 5 R/B 3.8 00:43:20 10° NNE 00:48:15 38° E 00:53:08 10° SSE
Cosmos 1898 Rocket 3.5 00:43:57 11° SW 00:48:59 89° NW 00:54:13 10° NE
ERS-2 3.5 00:48:27 10° SE 00:51:56 43° ENE 00:55:26 10° N
Meteor 2-10 4.5 00:46:55 10° S 00:52:32 72° ESE 00:58:18 10° NNE
NOSS 3-1 (A) 4.1 00:48:37 10° SSW 00:54:09 46° SE 01:00:41 10° ENE
Cosmos 1758 Rocket 3.5 00:49:49 10° NNW 00:54:10 79° WSW 00:58:30 10° S
Lacrosse 4 Rocket 2.9 00:51:29 10° WNW 00:55:25 37° N 00:59:16 10° ENE
Cosmos 1867 3.6 00:51:03 10° WNW 00:56:32 71° SW 01:01:58 10° SE
CZ-4C R/B 4.0 00:53:15 10° SE 00:56:33 50° ENE 00:59:57 10° N
Cosmos 1461 3.2 00:55:38 10° SW 01:00:09 77° SSE 01:04:53 10° ENE
Cosmos 494 Rocket 4.1 00:55:28 10° NW 01:00:30 55° WSW 01:05:33 10° S
CZ-2D R/B 2.3 00:56:40 10° NNE 01:02:10 71° WNW 01:07:37 10° SSW
ATLAS 3B R/B 2.8 00:59:18 10° W 01:06:01 82° N 01:12:56 10° E
Cosmos 1943 4.4 01:05:59 10° NW 01:10:17 23° WSW 01:14:35 10° SSW
NOSS 8 (A) 4.4 01:07:31 10° W 01:10:33 76° N 01:14:07 10° E
Cosmos 1340 Rocket 3.1 01:07:18 10° SW 01:11:12 56° WNW 01:15:05 10° NNE
Cosmos 1703 3.5 01:07:40 10° NNW 01:11:34 53° W 01:15:26 10° S
Cosmos 1626 4.4 01:11:55 10° WNW 01:12:44 11° WNW 01:13:33 10° W
Cosmos 1825 Rocket 3.5 01:08:25 10° NNW 01:12:46 69° W 01:17:04 10° S
Cosmos 1758 3.6 01:08:58 10° SSW 01:12:55 55° WNW 01:16:52 10° N
H-2A R/B 2.1 01:10:17 10° SSE 01:14:23 80° ENE 01:18:32 10° NNW
SL-16 R/B 3.7 01:10:00 10° SW 01:15:09 26° W 01:20:21 10° NNW
Timation 1 Rocket 4.4 01:10:36 10° SW 01:16:35 82° SE 01:22:35 10° NE
IRS-1D 3.6 01:14:12 10° NNE 01:19:18 87° WNW 01:24:29 10° SSW
NPP 3.9 01:15:37 10° NNE 01:20:58 63° WNW 01:26:17 10° SW
Cosmos 1709 Rocket 4.4 01:14:52 10° NNW 01:21:06 72° ENE 01:27:14 10° SSE
Helios 1B rocket 4.3 01:18:19 10° N 01:21:23 21° NW 01:24:26 10° W
Uosat 12 SS-18 rocket 4.3 01:18:39 10° W 01:23:09 73° NNW 01:27:29 10° ENE
SL-24 R/B 4.3 01:18:14 10° SSE 01:23:10 85° WSW 01:27:33 10° NNW
Landsat 5 3.6 01:19:44 10° SSE 01:23:51 86° ENE 01:28:10 10° NNW
Cosmos 1953 Rocket 3.6 01:19:39 10° NNW 01:24:10 75° WSW 01:28:39 10° S
Cosmos 1892 4.1 01:21:21 10° N 01:25:06 44° ENE 01:28:48 10° SE
Cosmos 1328 4.2 01:21:18 10° NNW 01:25:11 47° W 01:29:01 10° S
Cosmos 2227 Rocket 3.0 01:20:12 10° WSW 01:25:43 49° NNW 01:31:14 10° NE
USA 238 DEB 3.9 01:22:16 10° WNW 01:29:13 63° SW 01:36:28 10° SE
USA 238 3.9 01:22:22 10° WNW 01:29:19 63° SW 01:36:35 10° SE
